Casement, Ireland

12:08 PM IST on May 29, 2017 (GMT +0100)
Casement Air Base

Weather History for EIME - November, 2013

Change the Weather History Date:

Wednesday, November 20, 2013

  Actual Average (EIDW) Record (EIDW)
Temperature  
Mean Temperature 42 °F -  
Max Temperature 45 °F 46 °F 56 °F (2012)
Min Temperature 39 °F 36 °F 28 °F (2016)
Degree Days  
Heating Degree Days 23    
Moisture  
Dew Point 36 °F    
Average Humidity 78    
Maximum Humidity 93    
Minimum Humidity 55    
Precipitation  
Precipitation 0.04 in - - ()
Sea Level Pressure  
Sea Level Pressure 29.77 in    
Wind  
Wind Speed 18 mph ()    
Max Wind Speed 28 mph    
Max Gust Speed 39 mph    
Visibility 7.3 miles    
Events Rain    
Averages and records for this station are not official NWS values.
T = Trace of Precipitation, MM = Missing Value Source: Averaged Metar Reports

Daily Weather History Graph

Daily Weather History Graph

Search for Another Location

Airport or City:

Trip Planner

Search our weather history database for the weather conditions in past years. The results will help you decide how hot, cold, wet, or windy it might be!

Date:

Astronomy

Nov. 20, 2013 Rise Set
Actual Time 7:59 AM GMT 4:22 PM GMT
Civil Twilight 7:20 AM GMT 5:02 PM GMT
Nautical Twilight 6:36 AM GMT 5:45 PM GMT
Astronomical Twilight 5:55 AM GMT 6:26 PM GMT
Moon 6:52 PM GMT (11/20) 10:16 AM GMT (11/20)
Length of Visible Light 9h 41m
Length of Day
8h 22m
Waning Gibbous, 92% of the Moon is Illuminated
Nov 20
Waning Gibbous
Nov 25
Last Quarter
Dec 3
New
Dec 9
First Quarter
Dec 17
Full

Hourly Weather History & Observations

Time (GMT) Temp. Windchill Dew Point Humidity Pressure Visibility Wind Dir Wind Speed Gust Speed Precip Events Conditions
12:00 AM 41 °F - 38 °F 85% 29.95 in 19 mi SW 17.9 mph - -   Mostly Cloudy
12:00 AM 41.0 °F 32.2 °F 37.4 °F 87% 29.92 in 6.2 mi SW 18.4 mph - N/A   Mostly Cloudy
1:00 AM 42.8 °F 33.8 °F 41.0 °F 93% 29.89 in 6.2 mi SW 21.9 mph - N/A   Mostly Cloudy
2:00 AM 44.6 °F 35.3 °F 41.0 °F 87% 29.86 in 6.2 mi WSW 26.5 mph 39.1 mph N/A Rain Light Rain
3:00 AM 44.6 °F 36.1 °F 41.0 °F 87% 29.83 in 6.2 mi WSW 21.9 mph - N/A   Mostly Cloudy
4:00 AM 44.6 °F 35.5 °F 41.0 °F 87% 29.80 in 6.2 mi WSW 25.3 mph - N/A   Mostly Cloudy
5:00 AM 44.6 °F 35.7 °F 41.0 °F 87% 29.74 in 6.2 mi WSW 24.2 mph - N/A   Mostly Cloudy
6:00 AM 45 °F - 41 °F 82% 29.72 in 19 mi WSW 26.8 mph - - Rain Light Rain
6:00 AM 44.6 °F 35.1 °F 41.0 °F 87% 29.71 in 6.2 mi WSW 27.6 mph 39.1 mph N/A Rain Light Rain
7:00 AM 44.6 °F 36.4 °F 42.8 °F 93% 29.68 in 6.2 mi West 20.7 mph - N/A Rain Light Rain
8:00 AM 42.8 °F 33.8 °F 39.2 °F 87% 29.71 in 6.2 mi WNW 21.9 mph - N/A   Mostly Cloudy
8:30 AM 42.8 °F 34.3 °F 39.2 °F 87% 29.71 in 6.2 mi WNW 19.6 mph - N/A   Mostly Cloudy
9:00 AM 42.8 °F 35.8 °F 39.2 °F 87% 29.71 in 6.2 mi WNW 13.8 mph - N/A   Mostly Cloudy
9:30 AM 42.8 °F 35.8 °F 39.2 °F 87% 29.74 in 6.2 mi West 13.8 mph - N/A   Mostly Cloudy
10:00 AM 42.8 °F 35.8 °F 37.4 °F 81% 29.74 in 6.2 mi WNW 13.8 mph - N/A   Mostly Cloudy
10:30 AM 42.8 °F 35.8 °F 35.6 °F 76% 29.74 in 6.2 mi WNW 13.8 mph - N/A   Scattered Clouds
11:00 AM 44.6 °F 38.4 °F 35.6 °F 71% 29.74 in 6.2 mi WNW 12.7 mph - N/A   Partly Cloudy
11:30 AM 44.6 °F 36.9 °F 33.8 °F 66% 29.74 in 6.2 mi WNW 18.4 mph 35.7 mph N/A   Partly Cloudy
12:00 PM 44 °F - 33 °F 55% 29.76 in 25 mi WNW 22.4 mph - -   Partly Cloudy
12:00 PM 44.6 °F 35.9 °F 33.8 °F 66% 29.74 in 6.2 mi WNW 23.0 mph 35.7 mph N/A   Scattered Clouds
12:30 PM 44.6 °F 36.1 °F 33.8 °F 66% 29.71 in 6.2 mi WNW 21.9 mph - N/A   Scattered Clouds
1:00 PM 44.6 °F 36.1 °F 33.8 °F 66% 29.71 in 6.2 mi WNW 21.9 mph 33.4 mph N/A   Scattered Clouds
1:30 PM 44.6 °F 35.7 °F 33.8 °F 66% 29.71 in 6.2 mi WNW 24.2 mph 36.8 mph N/A   Partly Cloudy
2:00 PM 44.6 °F 35.7 °F 33.8 °F 66% 29.71 in 6.2 mi WNW 24.2 mph 35.7 mph N/A   Scattered Clouds
2:30 PM 42.8 °F 33.5 °F 35.6 °F 76% 29.74 in 6.2 mi NW 23.0 mph 39.1 mph N/A Rain Light Rain Showers
3:00 PM 42.8 °F 34.8 °F 35.6 °F 76% 29.74 in 6.2 mi NW 17.3 mph 28.8 mph N/A   Scattered Clouds
3:30 PM 42.8 °F 35.1 °F 33.8 °F 70% 29.74 in 6.2 mi NW 16.1 mph - N/A   Scattered Clouds
4:00 PM 42.8 °F 34.8 °F 35.6 °F 76% 29.74 in 6.2 mi NW 17.3 mph 31.1 mph N/A   Scattered Clouds
5:00 PM 41.0 °F 34.3 °F 35.6 °F 81% 29.77 in 6.2 mi NW 11.5 mph 31.1 mph N/A   Mostly Cloudy
6:00 PM 40 °F - 34 °F 72% 29.81 in 19 mi NW 17.9 mph - -   Partly Cloudy
6:00 PM 41.0 °F 32.5 °F 33.8 °F 76% 29.77 in 6.2 mi NW 17.3 mph 29.9 mph N/A   Scattered Clouds
7:00 PM 41.0 °F 32.8 °F 33.8 °F 76% 29.80 in 6.2 mi NW 16.1 mph 27.6 mph N/A   Scattered Clouds
8:00 PM 41.0 °F 35.2 °F 32.0 °F 70% 29.83 in 6.2 mi NW 9.2 mph 34.5 mph N/A   Mostly Cloudy
9:00 PM 39.2 °F 34.2 °F 32.0 °F 75% 29.83 in 6.2 mi WNW 6.9 mph - N/A   Mostly Cloudy
10:00 PM 39.2 °F 31.2 °F 32.0 °F 75% 29.83 in 6.2 mi NW 13.8 mph - N/A   Scattered Clouds
11:00 PM 39.2 °F 31.2 °F 30.2 °F 70% 29.86 in 6.2 mi NW 13.8 mph - N/A   Partly Cloudy